Погода в Бурукане

Погода в Бурукане : погода сейчас, прогноз погоды и архив. Всё, что Вы хотите узнать о погоде в Бурукане!

Поиск расширенной информации на нашем сайте:

Другие новости

Новости СМИ2

Главная страница сайта

Новости сайта

02.10.2013

Напоминаем, что на нашем новом сайте вы можете получить высокодетализированные прогнозы погоды по пунктам России, СНГ и мира (включающие важные для авиации метеовеличины, такие как направление и скорость ветра, видимость, явления погоды, количество и форма облачности, нижняя и верхняя граница облачности), а также ознакомиться с разнообразными материалами по авиационной метеорологии и подборкой полезных ссылок на эту тему.

Сайт Метеоцентр.Азия посвящён разработке технологий оптимизации авиаметеорологического обслуживания, включая проектирование и перспективное создание нескольких автоматизированных авиаметеорологических систем:
- система выпуска высокодетальных прогностических карт явлений погоды для нижнего воздушного пространства по России и ближнему зарубежью;
- система верификации прогнозов TAF (выпускаемых синоптиками официальных АМСГ РФ и ближнего зарубежья) и AUTOTAF (выпускаемых сайтом Метеоцентр.Азия) - выявление ошибок, онлайн-сопоставление с фактической погодой METAR, автоматическое внесение коррективов в прогнозы при резком отклонении фактической погоды от прогноза, подсчёт оправдываемости прогнозов по элементам и в целом;
- система обработки, анализа и отображения авиаметеорологической информации для применения провайдерами метеорологической информации.

Рекомендуем: шарж минск

Погода в Бурукане - сегодня

Время (UTC), дата Ветер
(°,м/с) 
Видим.   Явления Облачность Т
(°С)
Тd
(°С)
f(%) Тe
(°С)
Pmin
(гПа)
dP
(гПа)
Po
(мм)
O2
(г/м3)
Тmin Tmax R s Состояние
почвы
03 23.03.17 350 (С) 20000 м  {ливн. осадки}  10/8 600 м кучево-дожд., средняя 
[Cb cap|Ac As]
+0.5 -5.4 65 -1  1020.2  0.1  751  303           
06 23.03.17 030 (СВ) 20000 м  {ливн. осадки}  8/3 600 м верхняя 
[Cu hum|Ci sp]
+1.2 -5 63 1019.8  -0.3  750  302           
09 23.03.17 040 (СВ) 20000 м    9/3 600 м средняя, верхняя 
[Sc diur, vesp|Ac trans|Ci fib]
+0.1 -4.7 70 -1  1020.3  0.4  751  303    +1.6  0.0     
12 23.03.17 тихо ()   20000 м    3/0 верхняя 
[Ci fib]
-7 -7.4 97 -7  1021.5  0.7  751  311           
15 23.03.17 тихо ()   20000 м    ясно 
-12.3 -12.9 95 -12  1022  0.1  751  318           
18 23.03.17 300 (СЗ) 20000 м    ясно 
-15.8 -17 90 -16  1021.8  -0.5  751  323           
21 23.03.17 300 (СЗ) 20000 м    1/0 верхняя 
[Ci fib]
-17 -18.3 90 -17  1022.2  0.3  751  324  -17.1      35  равномерный
мокрый или
старый снег
100% 
00 24.03.17 350 (С) 20000 м    ясно 
-3.3 -9.9 60 -4  1021.3  0.1  751  307           
03 24.03.17 010 (С) 20000 м    ясно 
+2.8 -11.6 34 +2  1019.3  -1.5  750  300           
06 24.03.17 060 (СВ) 20000 м    1/0 верхняя 
[Ci fib]
+3.9 -12.4 29 +3  1017.7  -1.5  749  299           
09 24.03.17 030 (СВ) 20000 м    8/1 600 м средняя, верхняя 
[Sc diur, vesp|Ac trans|Ci fib]
+1.3 -11.5 38 +2  1018.5  0.7  750  302    +4.3       
12 24.03.17 тихо ()   20000 м    3/0 верхняя 
[Ci fib]
-5.4 -10.3 68 -5  1020.4  1.3  751  310           
15 24.03.17 360 (С) 20000 м    3/0 средняя, верхняя 
[Ac trans|Ci fib]
-9.5 -12.4 79 -9  1020.5  -0.2  750  314           
18 24.03.17 тихо ()   20000 м    3/0 средняя 
[Ac trans]
-13.4 -14.6 91 -13  1020.1  -0.7  750  319           
21 24.03.17 320 (СЗ) 20000 м    3/0 средняя 
[Ac trans]
-14.7 -15.9 91 -15  1020.5  0.3  750  321  -14.7      34  равномерный
мокрый или
старый снег
100% 
00 25.03.17 360 (С) 20000 м    ясно 
-3.5 -11.1 56 -5  1019.9  0.2  750  307  -15         
03 25.03.17 190 (Ю) 20000 м    4/4 600 м кучево-дожд. 
[Cb cap]
+3.9 -10.6 34 +3  1018  -1.3  749  299           
06 25.03.17 220 (ЮЗ) 20000 м    6/6 600 м 
[Cu hum]
+4.1 -12.5 29 +5  1017.1  -0.9  749  298           
09 25.03.17 010 (С) 20000 м    6/3 600 м средняя 
[Sc diur, vesp|Ac trans]
+2.7 -12 33 +2  1017.9  0.7  749  300    +5       
12 25.03.17 320 (СЗ) 20000 м    3/0 средняя 
[Ac trans]
-1.9 -8.4 61 -1  1019.6  1.4  750  305           
15 25.03.17 тихо ()   20000 м    ясно 
-9.1 -10.8 87 -9  1019.8  -0.3  750  314           
21 25.03.17 тихо ()   20000 м    3/0 средняя, верхняя 
[Ac lent|Ci fib]
-16.7 -18 90 -17  1020.7  0.5  750  323  -16.7      34  равномерный
мокрый или
старый снег
100% 
00 26.03.17 030 (СВ) 20000 м    9/0 средняя, верхняя 
[Ac trans|Ci fib]
-3.5 -11.3 55 -3  1020.1  0.5  750  307           
03 26.03.17 300 (СЗ) 20000 м    3/1 600 м средняя, верхняя 
[Cu Sc|Ac lent|Ci fib]
+3.3 -9.6 38 +3  1018.9  -0.7  750  299           
06 26.03.17 360 (С) 20000 м    6/3 600 м кучево-дожд., средняя, верхняя 
[Cb cap|Ac trans|Ci fib]
+3.2 -8.9 41 +2  1018.1  -0.8  749  299           
Время (UTC), дата Ветер
(°,м/с) 
Видим.   Явления Облачность Т
(°С)
Тd
(°С)
f(%) Тe
(°С)
Pmin
(гПа)
dP
(гПа)
Po
(мм)
O2
(г/м3)
Тmin Tmax R s Состояние
почвы

Для получения пояснительной информации подведите курсор к названию столбца.

ПОГОДА в Бурукане - архив

Всё, что Вы хотите узнать о погоде в Бурукане - удобно и подробно!

Выберите нужную дату (начиная с 1 января 2015* года) и нажмите кнопку "Найти".
Будут отображены архивные сводки погоды по пункту Бурукан, начиная с указанной даты.


Отображать данные в формате CSV (для использования в таблицах Excel)


Внимание! Наш архив погоды предназначен исключительно для личного некоммерческого использования в познавательных целях. Если Вам необходимы официальные справки о состоянии погоды (для производственных, юридических, коммерческих и т.п. целей), обращайтесь в органы Росгидромета.

*Примечание: данная дата относится к архиву по метеостанциям СССР (Россия, СНГ, Балтия).
Архив по метеостанциям Зарубежной Европы и Азии (кроме Китая) хранится 10 дней, по другим регионам земного шара (Китай, Африка, Америка, Австралия, Океания) - 1 день.

Бурукан - район местоположения метеостанции


Название, широта, долгота, высота метеостанции:
Бурукан 53.1°ш. 136°д. 153 м над ур. моря [Российская Федерация]

Дополнительная информация

В oтличие oт бoльшинства пoгoдных сайтoв мы публикуем пoдрoбную метеoинфoрмацию в детальнoм прoфессиoнальнoм фoрмате.

Характеристики температуры и влажнoсти вoздуха измеряются на высoте 2 м в тени вдали oт зданий и деревьев.
Скoрoсть ветра измеряется на высoте 10 м (на урoвне рoста челoвека скoрoсть ветра ниже в 1.5-2 раза). Если метеoстанция нахoдится в гoрoде или в лесу, тo скoрoсть ветра занижена на 2-4 м/с пo сравнению с oткрытым местoм. Скoрoсть ветра над акватoриями крупных рек и oзёр, а также на вершинах хoлмoв на 2-5 м/с выше, чем в oбычных услoвиях.
Атмoсфернoе давление в разных тoчках местнoсти мoжет значительнo oтличаться oт давления на метеoстанции, в зависимoсти oт услoвий рельефа (при пoдъёме на 10 м давление пoнижается примернo на 1 мм рт.ст.).